[[{"header":{"parameterUnit":"m.s-1","parameterCategory":1,"la1":30.2991,"la2":30.254,"lo1":-89.0895,"lo2":-89.0444,"dy":0.0017,"dx":0.0017,"nx":28,"ny":28,"refTime":"2025-09-13T03:00:00:Z","depth":0,"parameterNumber":2,"parameterNumberName":"U-component_of_WINDS"},"data":[0,0,0,0,0,0,0,0,0,0,0,0,0,0,0,0,0,0,0,0,0,0,0,0,0,0,0,0,0,0,0,0,0,0,0,0,0,0,0,0,0,0,0,0,0,0,0,0,0,0,0,0,0,0,0,0,0,0,0.1396,0.1396,0,0.1409,0.1409,0.1409,0.1432,0.1433,0.1433,0.1433,0.1446,0.1446,0.1445,0,0,0,0,0,0,0,0,0,0,0,0,0,0.1389,0.1389,0.1396,0.1396,0.1396,0.1409,0.1409,0.1409,0.1432,0.1433,0.1433,0.1434,0.1446,0.1446,0.1445,0,0,0,0,0,0,0,0,0,0,0,0,0,0.1396,0.1389,0.1396,0.1409,0.141,0.1409,0.1409,0.1409,0.1432,0.1433,0.1433,0.1434,0.1446,0.1446,0.1445,0.1431,0,0,0.1445,0.1445,0,0,0,0,0,0,0,0,0.1396,0.1396,0.1407,0.1408,0.141,0.142,0.1411,0.1417,0.1432,0.1424,0.1434,0.1434,0.1436,0.1437,0.1438,0.1432,0.1432,0.1445,0.1445,0.1445,0.1445,0,0,0,0,0,0,0,0.1395,0.1396,0.1401,0.1407,0.1409,0.1414,0.1416,0.1412,0.1426,0.1425,0.1426,0.1428,0.1437,0.1438,0.1438,0.1433,0.1445,0.1445,0.1445,0.1445,0.1414,0.1414,0,0,0,0,0,0,0.1393,0.1395,0.1401,0.1401,0.1404,0.1414,0.1415,0.1416,0.1426,0.1429,0.1427,0.1429,0.1438,0.1439,0.1439,0.1422,0.1445,0.1445,0.1445,0.1415,0.1414,0.1414,0,0,0,0,0,0,0.1393,0.1393,0.14,0.1399,0.14,0.1413,0.1413,0.1416,0.1417,0.1428,0.1431,0.1425,0.1438,0.1439,0.1433,0.1423,0.1445,0.1445,0.1416,0.1415,0.1414,0.1389,0,0,0,0,0,0,0.1392,0.1393,0.1388,0.1399,0.14,0.1394,0.1413,0.1415,0.1416,0.1419,0.1427,0.1429,0.1439,0.1433,0.1433,0.1423,0.1444,0.1417,0.1416,0.1414,0.1391,0.1387,0.1384,0,0,0,0,0,0.1392,0.1381,0.1388,0.1388,0.1394,0.1394,0.1394,0.1406,0.1416,0.141,0.1418,0.1429,0.1424,0.1432,0.1432,0.1422,0.1418,0.1416,0.1414,0.1392,0.1388,0.1384,0,0,0,0,0,0,0.1368,0.1382,0.139,0.1382,0.1386,0.1397,0.1391,0.1401,0.1403,0.1405,0.1419,0.1421,0.1412,0.1417,0.1425,0.1409,0.1423,0.1421,0.1406,0.1402,0.1399,0.1397,0.1444,0,0,0,0,0,0.1362,0.1361,0.1373,0.1364,0.1366,0.1378,0.1378,0.1387,0.1392,0.1394,0.1401,0.1405,0.1404,0.1404,0.1404,0.1392,0.1393,0.1385,0.1382,0.1379,0.1377,0.137,0.1366,0.1408,0.1408,0.1408,0,0,0.135,0.1357,0.1355,0.136,0.1364,0.1362,0.138,0.1377,0.1375,0.1393,0.1388,0.1393,0.1398,0.1389,0.1385,0.1392,0.1366,0.1377,0.1375,0.1374,0.1368,0.1364,0.136,0.1407,0.1407,0.1407,0,0,0.1325,0.1331,0.1324,0.1328,0.1334,0.1342,0.1341,0.135,0.1354,0.1349,0.1363,0.136,0.1359,0.1362,0.1363,0.1339,0.1349,0.1339,0.1321,0.1314,0.1311,0.1308,0.1298,0.1295,0.1337,0.1337,0.1337,0,0.1308,0.1305,0.1319,0.1315,0.1316,0.1333,0.1325,0.1329,0.1335,0.1335,0.1343,0.1341,0.1346,0.1337,0.1331,0.1332,0.133,0.1338,0.131,0.1308,0.1305,0.1296,0.1292,0.1336,0.1336,0.1336,0.1336,0,0.1283,0.1281,0.1275,0.128,0.1281,0.1275,0.1287,0.1286,0.1294,0.1301,0.1295,0.1302,0.1303,0.1302,0.131,0.1293,0.1298,0.1308,0.1322,0.1299,0.1291,0.1288,0.1334,0.1334,0.1335,0.1335,0,0,0.1244,0.1257,0.1254,0.1256,0.1265,0.1263,0.1257,0.1259,0.1257,0.1261,0.1256,0.1254,0.1264,0.1265,0.1274,0.1268,0.1247,0.1279,0.1279,0.1272,0.1228,0.1219,0.1215,0.1254,0.1253,0.1253,0.1227,0,0.122,0.1212,0.1223,0.1212,0.121,0.1226,0.1221,0.1225,0.1231,0.123,0.1237,0.1235,0.1248,0.1249,0.1244,0.125,0.1238,0.1253,0.1248,0.1248,0.1245,0.121,0.1201,0.1176,0.1224,0.1223,0.1223,0,0.1191,0.1193,0.1181,0.119,0.1189,0.1185,0.1186,0.1185,0.119,0.1195,0.1196,0.1207,0.1201,0.1215,0.1207,0.1217,0.1216,0.1219,0.1219,0.1218,0.1233,0.1207,0.1169,0.1165,0.1218,0.1218,0.1219,0,0.1162,0.1162,0.1155,0.1156,0.1166,0.1162,0.1166,0.1171,0.1171,0.1173,0.1173,0.1173,0.1174,0.1174,0.1184,0.1193,0.1174,0.1189,0.1177,0.1177,0.1171,0.1171,0.1131,0.1173,0.1173,0.1173,0.1173,0,0.1133,0.1125,0.1141,0.1137,0.1128,0.1142,0.1132,0.1138,0.1142,0.1139,0.1153,0.1149,0.1163,0.116,0.1168,0.116,0.116,0.1163,0.1165,0.1161,0.1161,0.116,0.1162,0.1172,0.1172,0.1172,0.1172,0,0.1098,0.1109,0.1102,0.1112,0.1114,0.1107,0.1115,0.1111,0.1118,0.1113,0.1113,0.1124,0.1122,0.1132,0.1131,0.1137,0.1124,0.1129,0.1122,0.1123,0.1109,0.111,0.1066,0.1061,0.1107,0.1107,0.1106,0,0.1079,0.1073,0.1082,0.1081,0.1084,0.1082,0.1082,0.1094,0.1094,0.1098,0.1093,0.1092,0.1092,0.1087,0.1094,0.1094,0.1098,0.1083,0.1098,0.1094,0.1097,0.1096,0.1095,0.108,0.1079,0.1079,0.1078,0,0.1043,0.1048,0.1048,0.1049,0.1048,0.105,0.1052,0.105,0.1064,0.1062,0.106,0.1059,0.1059,0.1057,0.1058,0.1061,0.1071,0.1073,0.107,0.1066,0.1061,0.1062,0.1112,0.1074,0.1075,0.1075,0.1075,0.1075,0.1014,0.101,0.1015,0.1014,0.1017,0.1018,0.1015,0.1021,0.102,0.102,0.1028,0.1024,0.1028,0.103,0.1033,0.1029,0.1036,0.1032,0.1031,0.1029,0.1026,0.1063,0.1029,0.103,0.103,0.103,0.103,0,0.0978,0.0982,0.0981,0.0983,0.0982,0.0993,0.0996,0.0994,0.099,0.0993,0.0992,0.0989,0.0987,0.0995,0.0994,0.099,0.0994,0.0989,0.0989,0.0989,0.102,0.1023,0.0985,0.0985,0.0985,0.0985,0.0985,0.0985,0.0959,0.0951,0.0957,0.095,0.0954,0.0951,0.0951,0.0952,0.0955,0.0951,0.0949,0.0954,0.0959,0.0958,0.0957,0.0959,0.0957,0.095,0.0954,0.0983,0.0987,0.0991,0.0993,0.095,0.095,0.0922,0.0922,0.0922]},{"header":{"parameterUnit":"m.s-1","parameterCategory":1,"la1":30.2991,"la2":30.254,"lo1":-89.0895,"lo2":-89.0444,"dy":0.0017,"dx":0.0017,"nx":28,"ny":28,"refTime":"2025-09-13T03:00:00:Z","depth":0,"parameterNumber":3,"parameterNumberName":"V-component_of_WINDS"},"data":[0,0,0,0,0,0,0,0,0,0,0,0,0,0,0,0,0,0,0,0,0,0,0,0,0,0,0,0,0,0,0,0,0,0,0,0,0,0,0,0,0,0,0,0,0,0,0,0,0,0,0,0,0,0,0,0,0,0,1.3357,1.3356,0,1.3301,1.33,1.3299,1.326,1.326,1.326,1.3259,1.3199,1.3197,1.3196,0,0,0,0,0,0,0,0,0,0,0,0,0,1.3426,1.3425,1.3357,1.3356,1.3355,1.3301,1.33,1.3299,1.326,1.326,1.3259,1.3259,1.3199,1.3198,1.3196,0,0,0,0,0,0,0,0,0,0,0,0,0,1.3386,1.3425,1.3357,1.3329,1.3326,1.3301,1.33,1.3299,1.326,1.326,1.3259,1.3259,1.32,1.3198,1.3196,1.3192,0,0,1.319,1.3189,0,0,0,0,0,0,0,0,1.3388,1.3383,1.3334,1.3331,1.3328,1.3287,1.3302,1.3263,1.326,1.3285,1.3259,1.3259,1.3228,1.3224,1.3214,1.319,1.3187,1.319,1.3188,1.3187,1.3187,0,0,0,0,0,0,0,1.3391,1.3385,1.3335,1.3333,1.333,1.3319,1.3312,1.3295,1.326,1.3283,1.328,1.3274,1.3226,1.3216,1.3213,1.3186,1.319,1.3188,1.3187,1.3186,1.3153,1.3154,0,0,0,0,0,0,1.3398,1.3388,1.3336,1.3333,1.3358,1.3318,1.3311,1.3301,1.326,1.3253,1.3275,1.3273,1.322,1.3215,1.321,1.3202,1.3187,1.3186,1.3184,1.3153,1.3154,1.3154,0,0,0,0,0,0,1.34,1.3394,1.3339,1.336,1.3352,1.3317,1.3306,1.33,1.329,1.3254,1.3247,1.3271,1.3219,1.3213,1.3197,1.32,1.3185,1.3183,1.3153,1.3153,1.3154,1.3188,0,0,0,0,0,0,1.3402,1.3395,1.3395,1.336,1.3351,1.3328,1.3306,1.3299,1.3287,1.3283,1.3248,1.3242,1.3219,1.32,1.3195,1.3197,1.3181,1.3152,1.3153,1.3154,1.3186,1.3189,1.3192,0,0,0,0,0,1.3405,1.3406,1.3395,1.3389,1.3349,1.3328,1.3322,1.3296,1.3287,1.3285,1.3262,1.3243,1.32,1.3199,1.3193,1.3194,1.3152,1.3153,1.3154,1.3185,1.3189,1.3192,0,0,0,0,0,0,1.3441,1.3401,1.3388,1.3378,1.3357,1.3321,1.3319,1.3301,1.3281,1.3279,1.3246,1.3239,1.3226,1.3208,1.3207,1.3187,1.3174,1.3173,1.32,1.3203,1.3206,1.321,1.318,0,0,0,0,0,1.3448,1.3435,1.34,1.3395,1.3385,1.3354,1.3343,1.3325,1.3301,1.3291,1.3267,1.3243,1.3224,1.3213,1.3193,1.3183,1.3174,1.3181,1.3184,1.3186,1.3186,1.3178,1.318,1.3156,1.3156,1.3156,0,0,1.3462,1.3439,1.3432,1.3401,1.3383,1.3369,1.3346,1.3333,1.3321,1.3289,1.3272,1.3253,1.3225,1.3211,1.3204,1.3196,1.3191,1.3187,1.319,1.3188,1.3179,1.3181,1.3183,1.3157,1.3157,1.3157,0,0,1.3481,1.3462,1.3455,1.3436,1.3408,1.3387,1.3386,1.3353,1.3339,1.3322,1.3297,1.3282,1.3251,1.3231,1.3217,1.3226,1.3207,1.3221,1.3236,1.3228,1.323,1.3231,1.3233,1.3235,1.3221,1.3221,1.3221,0,1.3501,1.348,1.3453,1.3441,1.3427,1.3398,1.3389,1.3372,1.3339,1.333,1.3322,1.3281,1.3259,1.324,1.3242,1.3232,1.3228,1.3224,1.3232,1.3233,1.3234,1.3236,1.3237,1.3222,1.3222,1.3222,1.3222,0,1.3506,1.3492,1.3489,1.3459,1.3445,1.3435,1.3404,1.3393,1.3376,1.3355,1.3337,1.331,1.3284,1.3278,1.3261,1.3256,1.3252,1.3238,1.3224,1.3238,1.3239,1.324,1.3225,1.3224,1.3224,1.3223,0,0,1.3547,1.3501,1.35,1.3485,1.3452,1.3439,1.3426,1.3402,1.3392,1.337,1.3358,1.3331,1.3318,1.3302,1.3282,1.3275,1.3282,1.3262,1.3261,1.3266,1.3274,1.3284,1.3285,1.327,1.327,1.327,1.3276,0,1.3559,1.3537,1.3511,1.3497,1.3482,1.3453,1.3442,1.3419,1.3399,1.3383,1.336,1.3341,1.3326,1.3316,1.3308,1.3283,1.3283,1.3283,1.3257,1.3256,1.3265,1.3286,1.3297,1.3303,1.3276,1.3276,1.3276,0,1.3571,1.3551,1.3535,1.3502,1.3495,1.3485,1.346,1.3445,1.3418,1.3403,1.3385,1.3364,1.3347,1.3335,1.331,1.331,1.3298,1.3284,1.3284,1.328,1.3267,1.3282,1.3305,1.3306,1.3277,1.3277,1.3277,0,1.3601,1.357,1.3556,1.3544,1.3505,1.3499,1.3482,1.3454,1.3441,1.3418,1.3408,1.3384,1.337,1.3351,1.3322,1.3316,1.3301,1.3286,1.3287,1.3288,1.3285,1.3286,1.3306,1.3278,1.3278,1.3278,1.3278,0,1.3618,1.3609,1.3569,1.356,1.3549,1.3519,1.3508,1.3488,1.3464,1.345,1.3423,1.341,1.3373,1.3355,1.3333,1.3316,1.331,1.3297,1.3291,1.3299,1.33,1.329,1.3288,1.3279,1.3278,1.3278,1.3278,0,1.3649,1.3622,1.3605,1.3569,1.356,1.3553,1.3521,1.3511,1.3489,1.3471,1.3465,1.3431,1.3408,1.3378,1.3346,1.3331,1.3316,1.3307,1.3325,1.3322,1.3324,1.3324,1.3338,1.3338,1.3311,1.3311,1.3312,0,1.3662,1.3654,1.3617,1.3607,1.3591,1.3573,1.3559,1.3529,1.3515,1.3483,1.3476,1.3451,1.343,1.3395,1.3366,1.3341,1.3331,1.3337,1.3327,1.3334,1.3329,1.333,1.3328,1.334,1.334,1.3341,1.3341,0,1.3686,1.3672,1.3654,1.363,1.3614,1.3594,1.3572,1.3564,1.3529,1.3514,1.3491,1.3475,1.3442,1.3417,1.3388,1.3369,1.3348,1.3345,1.3343,1.3351,1.3362,1.3355,1.3332,1.3344,1.3344,1.3344,1.3344,1.3343,1.3707,1.3699,1.3672,1.3651,1.3632,1.3612,1.36,1.3576,1.3557,1.3529,1.3511,1.3489,1.3459,1.3418,1.34,1.338,1.3373,1.3371,1.337,1.337,1.3373,1.3365,1.3375,1.3375,1.3375,1.3375,1.3375,0,1.3729,1.371,1.3692,1.3662,1.3646,1.3629,1.3603,1.359,1.3571,1.3546,1.3526,1.3499,1.3474,1.3443,1.3416,1.3407,1.3396,1.34,1.3401,1.3396,1.3382,1.3385,1.3409,1.3409,1.3409,1.3409,1.3409,1.3409,1.3739,1.3723,1.3707,1.368,1.366,1.3639,1.3626,1.3606,1.3586,1.3557,1.3537,1.3517,1.3489,1.346,1.3436,1.3427,1.3418,1.3425,1.3413,1.34,1.3397,1.3394,1.3397,1.3423,1.3424,1.3429,1.3429,1.3429]}]]